Minot AFB, ND

10:44 PM CDT on October 20, 2019 (GMT -0500)
Minot Air Force Base

Weather History for KMIB - August, 2019

Change the Weather History Date:

Sunday, August 18, 2019

  Actual Average Record
Temperature  
Mean Temperature 61 °F -  
Max Temperature 75 °F 79 °F 96 °F (2018)
Min Temperature 47 °F 53 °F 42 °F (2015)
Degree Days  
Heating Degree Days 4    
Growing Degree Days 11 (Base 50)    
Moisture  
Dew Point 45 °F    
Average Humidity 57    
Maximum Humidity 87    
Minimum Humidity 29    
Precipitation  
Precipitation 0.00 in - - ()
Sea Level Pressure  
Sea Level Pressure 29.80 in    
Wind  
Wind Speed 10 mph (WSW)    
Max Wind Speed 16 mph    
Max Gust Speed 25 mph    
Visibility 10 miles    
Events      
Averages and records for this station are not official NWS values.
T = Trace of Precipitation, MM = Missing Value Source: NWS Daily Summary

Daily Weather History Graph

Daily Weather History Graph

Search for Another Location

Airport or City:

Astronomy

Aug. 18, 2019 Rise Set
Actual Time 6:43 AM CDT 8:54 PM CDT
Civil Twilight 6:08 AM CDT 9:28 PM CDT
Nautical Twilight 5:26 AM CDT 10:10 PM CDT
Astronomical Twilight 4:38 AM CDT 10:58 PM CDT
Moon 10:36 PM CDT (8/18) 9:40 AM CDT (8/18)
Length of Visible Light 15h 19m
Length of Day
14h 11m
Waning Gibbous, 91% of the Moon is Illuminated
Aug 18
Waning Gibbous
Aug 23
Last Quarter
Aug 30
New
Sep 5
First Quarter
Sep 13
Full

Hourly Weather History & Observations

Time (CDT) Temp. Dew Point Humidity Pressure Visibility Wind Dir Wind Speed Gust Speed Precip Events Conditions
12:56 AM 48.7 °F 43.5 °F 82% 29.83 in 10.0 mi WSW 9.2 mph - N/A   Clear
1:56 AM 47.1 °F 42.8 °F 85% 29.83 in 10.0 mi West 6.9 mph - N/A   Clear
2:56 AM 47.7 °F 43.3 °F 85% 29.82 in 10.0 mi WSW 6.9 mph - N/A   Clear
3:56 AM 47.8 °F 43.9 °F 86% 29.82 in 10.0 mi WSW 6.9 mph - N/A   Clear
4:56 AM 48.7 °F 44.4 °F 85% 29.81 in 10.0 mi West 9.2 mph - N/A   Clear
5:56 AM 49.6 °F 45.3 °F 85% 29.81 in 10.0 mi WSW 9.2 mph - N/A   Clear
6:56 AM 48.6 °F 44.8 °F 87% 29.81 in 10.0 mi WSW 8.1 mph - N/A   Clear
7:56 AM 52.3 °F 46.4 °F 80% 29.81 in 10.0 mi WSW 10.4 mph - N/A   Clear
8:56 AM 56.7 °F 47.3 °F 71% 29.82 in 10.0 mi West 12.7 mph 18.4 mph N/A   Clear
9:56 AM 60.8 °F 48.6 °F 64% 29.83 in 10.0 mi West 16.1 mph 23.0 mph N/A   Clear
10:56 AM 64.9 °F 48.4 °F 55% 29.82 in 10.0 mi West 16.1 mph 20.7 mph N/A   Clear
11:56 AM 67.8 °F 46.8 °F 47% 29.83 in 10.0 mi West 16.1 mph 23.0 mph N/A   Partly Cloudy
12:56 PM 70.3 °F 40.6 °F 34% 29.83 in 10.0 mi WSW 13.8 mph - N/A   Clear
1:56 PM 72.0 °F 41.4 °F 33% 29.81 in 10.0 mi SW 9.2 mph 23.0 mph N/A   Clear
2:49 PM 73.4 °F 41.0 °F 31% 29.81 in 10.0 mi SW 16.1 mph 24.2 mph N/A   Clear
2:56 PM 73.2 °F 40.8 °F 31% 29.81 in 10.0 mi SW 16.1 mph 25.3 mph N/A   Clear
3:56 PM 73.8 °F 39.6 °F 29% 29.79 in 10.0 mi SW 13.8 mph 24.2 mph N/A   Clear
4:56 PM 74.7 °F 40.3 °F 29% 29.77 in 10.0 mi WSW 16.1 mph 21.9 mph N/A   Clear
5:56 PM 75.4 °F 40.8 °F 29% 29.77 in 10.0 mi West 11.5 mph 20.7 mph N/A   Partly Cloudy
6:56 PM 74.1 °F 43.9 °F 34% 29.77 in 10.0 mi WSW 5.8 mph - N/A   Clear
7:56 PM 72.5 °F 46.0 °F 39% 29.75 in 10.0 mi SW 8.1 mph - N/A   Clear
8:56 PM 65.1 °F 47.5 °F 53% 29.75 in 10.0 mi SSW 5.8 mph - N/A   Clear
9:56 PM 63.5 °F 48.0 °F 57% 29.75 in 10.0 mi SSW 5.8 mph - N/A   Scattered Clouds
10:56 PM 61.9 °F 48.2 °F 61% 29.75 in 10.0 mi SSW 5.8 mph - N/A   Clear
11:56 PM 61.7 °F 48.9 °F 63% 29.75 in 10.0 mi SSW 10.4 mph - N/A   Scattered Clouds